| time (UTC) | temp F | wind direction | speed knots | gust knots | rain 1hr in | rain 24hr in | rain mn in | humidity % | barometer mb |
| 20260507145948 | 48 | 254 | 3.5 | 7.8 | 0.00 | 0.00 | 0.00 | 78 | 1023.7 |
| 20260507145719 | 48 | 235 | 3.5 | 7.8 | 0.00 | 0.00 | 0.00 | 80 | 1023.8 |
| 20260507145219 | 48 | 244 | 3.5 | 7.0 | 0.00 | 0.00 | 0.00 | 81 | 1023.8 |
| 20260507144450 | 47 | 249 | 3.5 | 7.0 | 0.00 | 0.00 | 0.00 | 83 | 1023.8 |
| 20260507143946 | 47 | 281 | 3.5 | 7.0 | 0.00 | 0.00 | 0.00 | 84 | 1023.9 |
| 20260507143446 | 46 | 276 | 4.3 | 7.0 | 0.00 | 0.00 | 0.00 | 85 | 1023.9 |
| 20260507143218 | 45 | 302 | 4.3 | 7.8 | 0.00 | 0.00 | 0.00 | 86 | 1024.0 |
| 20260507142446 | 45 | 322 | 4.3 | 8.7 | 0.00 | 0.00 | 0.00 | 87 | 1024.1 |
| 20260507141946 | 44 | 331 | 4.3 | 8.7 | 0.00 | 0.00 | 0.00 | 87 | 1024.2 |
| 20260507141447 | 44 | 272 | 4.3 | 7.8 | 0.00 | 0.00 | 0.00 | 88 | 1024.3 |
| 20260507140947 | 44 | 327 | 4.3 | 7.8 | 0.00 | 0.00 | 0.00 | 88 | 1024.2 |
| 20260507140447 | 44 | 334 | 3.5 | 7.8 | 0.00 | 0.00 | 0.00 | 89 | 1024.3 |
| 20260507135943 | 43 | 307 | 3.5 | 7.0 | 0.00 | 0.00 | 0.00 | 90 | 1024.3 |
| 20260507135712 | 43 | 301 | 3.5 | 7.0 | 0.00 | 0.00 | 0.00 | 89 | 1024.3 |
| 20260507134938 | 43 | 281 | 3.5 | 7.0 | 0.00 | 0.00 | 0.00 | 90 | 1024.3 |
| 20260507134438 | 42 | 285 | 4.3 | 7.0 | 0.00 | 0.00 | 0.00 | 90 | 1024.4 |
| 20260507133939 | 42 | 265 | 3.5 | 7.0 | 0.00 | 0.00 | 0.00 | 90 | 1024.4 |
| 20260507133708 | 42 | 307 | 5.2 | 7.8 | 0.00 | 0.00 | 0.00 | 90 | 1024.4 |
| 20260507132936 | 41 | 342 | 6.1 | 7.8 | 0.00 | 0.00 | 0.00 | 90 | 1024.4 |
| 20260507132437 | 41 | 335 | 5.2 | 7.8 | 0.00 | 0.00 | 0.00 | 89 | 1024.4 |
| 20260507132208 | 41 | 319 | 4.3 | 8.7 | 0.00 | 0.00 | 0.00 | 89 | 1024.4 |
| 20260507131437 | 41 | 293 | 4.3 | 8.7 | 0.00 | 0.00 | 0.00 | 89 | 1024.4 |
| 20260507130936 | 41 | 279 | 4.3 | 6.1 | 0.00 | 0.00 | 0.00 | 89 | 1024.4 |
| 20260507130432 | 41 | 324 | 3.5 | 7.0 | 0.00 | 0.00 | 0.00 | 89 | 1024.4 |
| 20260507125932 | 41 | 328 | 3.5 | 7.0 | 0.00 | 0.00 | 0.00 | 89 | 1024.3 |
| 20260507125433 | 40 | 337 | 3.5 | 6.1 | 0.00 | 0.00 | 0.00 | 89 | 1024.3 |
| 20260507124932 | 40 | 342 | 2.6 | 6.1 | 0.00 | 0.00 | 0.00 | 89 | 1024.2 |
| 20260507124432 | 40 | 340 | 1.7 | 6.1 | 0.00 | 0.00 | 0.00 | 88 | 1024.2 |
| 20260507123933 | 39 | 300 | 0.9 | 4.3 | 0.00 | 0.00 | 0.00 | 89 | 1024.2 |
| 20260507123422 | 39 | 316 | 0.9 | 4.3 | 0.00 | 0.00 | 0.00 | 88 | 1024.1 |
| 20260507122922 | 39 | 290 | 0.9 | 3.5 | 0.00 | 0.00 | 0.00 | 88 | 1024.1 |
| 20260507122422 | 39 | 287 | 0.9 | 3.5 | 0.00 | 0.00 | 0.00 | 88 | 1023.9 |
| 20260507121922 | 38 | 281 | 0.0 | 3.5 | 0.00 | 0.00 | 0.00 | 88 | 1023.9 |
| 20260507121423 | 38 | 306 | 0.0 | 0.0 | 0.00 | 0.00 | 0.00 | 88 | 1023.9 |
| 20260507120920 | 38 | 300 | 0.0 | 0.9 | 0.00 | 0.00 | 0.00 | 88 | 1023.9 |
| 20260507120420 | 38 | 302 | 0.0 | 2.6 | 0.00 | 0.00 | 0.00 | 88 | 1023.8 |
| 20260507115917 | 38 | 299 | 0.0 | 2.6 | 0.00 | 0.00 | 0.00 | 88 | 1023.8 |
| 20260507115414 | 38 | 305 | 0.0 | 2.6 | 0.00 | 0.00 | 0.00 | 88 | 1023.8 |
| 20260507114913 | 38 | 304 | 0.0 | 1.7 | 0.00 | 0.00 | 0.00 | 88 | 1023.8 |
| 20260507114400 | 38 | 300 | 0.9 | 2.6 | 0.00 | 0.00 | 0.00 | 88 | 1023.7 |
| 20260507113856 | 38 | 312 | 0.9 | 2.6 | 0.00 | 0.00 | 0.00 | 87 | 1023.7 |
| 20260507113355 | 38 | 317 | 0.9 | 2.6 | 0.00 | 0.00 | 0.00 | 87 | 1023.7 |
| 20260507112852 | 38 | 310 | 0.9 | 1.7 | 0.00 | 0.00 | 0.00 | 87 | 1023.6 |
| 20260507112352 | 38 | 316 | 0.9 | 2.6 | 0.00 | 0.00 | 0.00 | 87 | 1023.8 |
| 20260507111851 | 38 | 301 | 0.9 | 2.6 | 0.00 | 0.00 | 0.00 | 87 | 1023.8 |
| 20260507111340 | 38 | 308 | 0.9 | 2.6 | 0.00 | 0.00 | 0.00 | 87 | 1023.8 |
| 20260507110841 | 38 | 330 | 0.9 | 2.6 | 0.00 | 0.00 | 0.00 | 87 | 1023.8 |
| 20260507110340 | 38 | 330 | 0.9 | 3.5 | 0.00 | 0.00 | 0.00 | 87 | 1023.8 |
| 20260507105841 | 38 | 333 | 1.7 | 3.5 | 0.00 | 0.00 | 0.00 | 87 | 1023.8 |
| 20260507105340 | 38 | 309 | 1.7 | 3.5 | 0.00 | 0.00 | 0.00 | 86 | 1023.7 |
| 20260507105116 | 38 | 326 | 1.7 | 3.5 | 0.00 | 0.00 | 0.00 | 86 | 1023.7 |
| 20260507104841 | 38 | 309 | 1.7 | 2.6 | 0.00 | 0.00 | 0.00 | 86 | 1023.7 |
| 20260507103838 | 39 | 326 | 1.7 | 4.3 | 0.00 | 0.00 | 0.00 | 85 | 1023.7 |
| 20260507103336 | 39 | 333 | 2.6 | 5.2 | 0.00 | 0.00 | 0.00 | 85 | 1023.7 |
| 20260507102836 | 40 | 326 | 0.9 | 5.2 | 0.00 | 0.00 | 0.00 | 85 | 1023.7 |
| 20260507102337 | 40 | 291 | 0.0 | 1.7 | 0.00 | 0.00 | 0.00 | 86 | 1023.6 |
| 20260507101810 | 40 | 311 | 0.0 | 0.9 | 0.00 | 0.00 | 0.00 | 86 | 1023.5 |
| 20260507101312 | 40 | 313 | 0.0 | 0.0 | 0.00 | 0.00 | 0.00 | 85 | 1023.6 |
| 20260507101024 | 40 | 318 | 0.0 | 0.0 | 0.00 | 0.00 | 0.00 | 85 | 1023.5 |
| 20260507100517 | 40 | 318 | 0.0 | 0.0 | 0.00 | 0.00 | 0.00 | 85 | 1023.5 |
| 20260507095735 | 40 | 318 | 0.0 | 0.9 | 0.00 | 0.00 | 0.00 | 85 | 1023.5 |
| 20260507095228 | 40 | 318 | 0.9 | 2.6 | 0.00 | 0.00 | 0.00 | 85 | 1023.6 |
| 20260507094950 | 40 | 323 | 1.7 | 3.5 | 0.00 | 0.00 | 0.00 | 85 | 1023.6 |
| 20260507094201 | 40 | 333 | 1.7 | 3.5 | 0.00 | 0.00 | 0.00 | 84 | 1023.5 |
| 20260507093927 | 40 | 337 | 2.6 | 3.5 | 0.00 | 0.00 | 0.00 | 84 | 1023.6 |
| 20260507093651 | 40 | 335 | 2.6 | 3.5 | 0.00 | 0.00 | 0.00 | 84 | 1023.7 |
| 20260507092648 | 40 | 359 | 2.6 | 4.3 | 0.00 | 0.00 | 0.00 | 83 | 1023.6 |
| 20260507092142 | 40 | 355 | 3.5 | 5.2 | 0.00 | 0.00 | 0.00 | 83 | 1023.5 |
| 20260507091642 | 41 | 352 | 3.5 | 5.2 | 0.00 | 0.00 | 0.00 | 82 | 1023.6 |
| 20260507091139 | 41 | 352 | 3.5 | 5.2 | 0.00 | 0.00 | 0.00 | 82 | 1023.6 |
| 20260507090635 | 41 | 359 | 2.6 | 5.2 | 0.00 | 0.00 | 0.00 | 81 | 1023.5 |
| 20260507090136 | 42 | 344 | 2.6 | 4.3 | 0.00 | 0.00 | 0.00 | 80 | 1023.4 |
| 20260507085634 | 42 | 359 | 1.7 | 3.5 | 0.00 | 0.00 | 0.00 | 79 | 1023.4 |
| 20260507085133 | 42 | 1 | 0.9 | 2.6 | 0.00 | 0.00 | 0.00 | 79 | 1023.3 |
| 20260507084626 | 42 | 11 | 0.9 | 2.6 | 0.00 | 0.00 | 0.00 | 78 | 1023.3 |
| 20260507084124 | 43 | 20 | 0.9 | 2.6 | 0.00 | 0.00 | 0.00 | 77 | 1023.2 |
| 20260507083614 | 43 | 20 | 1.7 | 2.6 | 0.00 | 0.00 | 0.00 | 77 | 1023.2 |
| 20260507083113 | 43 | 22 | 1.7 | 3.5 | 0.00 | 0.00 | 0.00 | 76 | 1023.0 |
| 20260507082614 | 44 | 15 | 1.7 | 3.5 | 0.00 | 0.00 | 0.00 | 75 | 1023.1 |
| 20260507082113 | 44 | 34 | 1.7 | 3.5 | 0.00 | 0.00 | 0.00 | 75 | 1022.9 |
| 20260507081612 | 44 | 63 | 1.7 | 3.5 | 0.00 | 0.00 | 0.00 | 75 | 1023.0 |
| 20260507081342 | 44 | 49 | 1.7 | 3.5 | 0.00 | 0.00 | 0.00 | 76 | 1023.0 |
| 20260507080834 | 44 | 58 | 2.6 | 6.1 | 0.00 | 0.00 | 0.00 | 75 | 1023.1 |
| 20260507075559 | 44 | 84 | 3.5 | 7.0 | 0.00 | 0.00 | 0.00 | 76 | 1022.9 |
| 20260507075054 | 44 | 77 | 5.2 | 8.7 | 0.00 | 0.00 | 0.00 | 76 | 1022.8 |
| 20260507074822 | 44 | 57 | 6.1 | 9.6 | 0.00 | 0.00 | 0.00 | 77 | 1022.6 |
| 20260507074324 | 44 | 67 | 5.2 | 9.6 | 0.00 | 0.00 | 0.00 | 77 | 1022.9 |
| 20260507073549 | 44 | 101 | 4.3 | 7.8 | 0.00 | 0.00 | 0.00 | 77 | 1022.9 |
| 20260507073049 | 44 | 108 | 3.5 | 6.1 | 0.00 | 0.00 | 0.00 | 78 | 1023.3 |
| 20260507072550 | 44 | 29 | 3.5 | 6.1 | 0.00 | 0.00 | 0.00 | 78 | 1024.2 |
| 20260507072047 | 44 | 20 | 4.3 | 6.1 | 0.00 | 0.00 | 0.00 | 77 | 1024.1 |
| 20260507071547 | 44 | 1 | 3.5 | 6.1 | 0.00 | 0.00 | 0.00 | 77 | 1024.3 |
| 20260507071049 | 44 | 359 | 2.6 | 5.2 | 0.00 | 0.00 | 0.00 | 76 | 1024.2 |
| 20260507070544 | 44 | 25 | 1.7 | 3.5 | 0.00 | 0.00 | 0.00 | 77 | 1024.2 |
| 20260507070043 | 44 | 36 | 0.9 | 3.5 | 0.00 | 0.00 | 0.00 | 77 | 1024.2 |
| 20260507065807 | 44 | 22 | 0.9 | 3.5 | 0.00 | 0.00 | 0.00 | 77 | 1024.4 |
| 20260507065036 | 44 | 51 | 1.7 | 3.5 | 0.00 | 0.00 | 0.00 | 77 | 1024.4 |
| 20260507064533 | 44 | 20 | 2.6 | 5.2 | 0.00 | 0.00 | 0.00 | 76 | 1024.4 |
| 20260507064036 | 44 | 2 | 3.5 | 6.1 | 0.00 | 0.00 | 0.00 | 76 | 1024.2 |
| 20260507063533 | 45 | 357 | 3.5 | 6.1 | 0.00 | 0.00 | 0.00 | 75 | 1024.2 |
| 20260507063030 | 45 | 0 | 3.5 | 7.0 | 0.00 | 0.00 | 0.00 | 75 | 1024.5 |
| 20260507062530 | 45 | 19 | 5.2 | 7.8 | 0.00 | 0.00 | 0.00 | 75 | 1024.5 |
| 20260507062030 | 45 | 1 | 5.2 | 8.7 | 0.00 | 0.00 | 0.00 | 75 | 1024.7 |
| 20260507061530 | 45 | 349 | 5.2 | 8.7 | 0.00 | 0.00 | 0.00 | 75 | 1024.6 |
| 20260507061030 | 45 | 17 | 4.3 | 7.0 | 0.00 | 0.00 | 0.00 | 74 | 1024.5 |
| 20260507060529 | 46 | 1 | 4.3 | 7.0 | 0.00 | 0.00 | 0.00 | 73 | 1024.5 |
| 20260507060300 | 45 | 8 | 6.1 | 9.6 | 0.00 | 0.00 | 0.00 | 73 | 1024.2 |
| 20260507055528 | 45 | 8 | 6.1 | 9.6 | 0.00 | 0.00 | 0.00 | 73 | 1023.9 |
| 20260507055025 | 45 | 6 | 7.0 | 9.6 | 0.00 | 0.00 | 0.00 | 71 | 1023.8 |
| 20260507054525 | 46 | 15 | 6.1 | 9.6 | 0.00 | 0.00 | 0.00 | 70 | 1023.6 |
| 20260507054023 | 46 | 16 | 6.1 | 9.6 | 0.00 | 0.00 | 0.00 | 70 | 1023.3 |
| 20260507053521 | 46 | 32 | 6.1 | 9.6 | 0.00 | 0.00 | 0.00 | 70 | 1023.2 |
| 20260507053022 | 46 | 20 | 6.1 | 9.6 | 0.00 | 0.00 | 0.00 | 70 | 1023.6 |
| 20260507052753 | 46 | 11 | 6.1 | 10.4 | 0.00 | 0.00 | 0.00 | 69 | 1023.6 |
| 20260507052021 | 46 | 29 | 7.8 | 12.2 | 0.00 | 0.00 | 0.00 | 69 | 1023.5 |
| 20260507051519 | 46 | 32 | 8.7 | 15.6 | 0.00 | 0.00 | 0.00 | 69 | 1023.5 |
| 20260507051020 | 46 | 28 | 8.7 | 15.6 | 0.00 | 0.00 | 0.00 | 68 | 1023.5 |
| 20260507050517 | 46 | 5 | 8.7 | 12.2 | 0.00 | 0.00 | 0.00 | 67 | 1023.6 |
| 20260507050015 | 46 | 20 | 8.7 | 13.0 | 0.00 | 0.00 | 0.00 | 67 | 1023.6 |
| 20260507045515 | 46 | 0 | 8.7 | 14.8 | 0.00 | 0.00 | 0.00 | 67 | 1023.4 |
| 20260507045247 | 46 | 5 | 8.7 | 14.8 | 0.00 | 0.00 | 0.00 | 67 | 1023.2 |
| 20260507044515 | 46 | 16 | 8.7 | 13.9 | 0.00 | 0.00 | 0.00 | 67 | 1023.2 |
| 20260507044015 | 46 | 22 | 10.4 | 15.6 | 0.00 | 0.00 | 0.00 | 67 | 1023.1 |
| 20260507043510 | 46 | 20 | 10.4 | 15.6 | 0.00 | 0.00 | 0.00 | 67 | 1023.0 |
| 20260507043010 | 46 | 30 | 10.4 | 15.6 | 0.00 | 0.00 | 0.00 | 67 | 1022.8 |
| 20260507042740 | 46 | 1 | 8.7 | 13.0 | 0.00 | 0.00 | 0.00 | 68 | 1022.7 |
| 20260507042013 | 47 | 359 | 8.7 | 13.9 | 0.00 | 0.00 | 0.00 | 68 | 1022.9 |
| 20260507042009 | 46 | 27 | 7.8 | 12.2 | 0.00 | 0.00 | 0.00 | 68 | 1022.9 |
| 20260507041006 | 47 | 12 | 10.4 | 15.6 | 0.00 | 0.00 | 0.00 | 67 | 1022.7 |
| 20260507040736 | 47 | 1 | 10.4 | 15.6 | 0.00 | 0.00 | 0.00 | 67 | 1022.4 |
| 20260507040233 | 47 | 22 | 9.6 | 13.9 | 0.00 | 0.00 | 0.00 | 67 | 1022.4 |
| 20260507035458 | 47 | 8 | 9.6 | 13.0 | 0.00 | 0.00 | 0.00 | 68 | 1022.1 |
| 20260507035229 | 48 | 14 | 10.4 | 14.8 | 0.00 | 0.00 | 0.00 | 68 | 1021.9 |
| 20260507034458 | 48 | 22 | 11.3 | 17.4 | 0.00 | 0.00 | 0.00 | 68 | 1021.9 |
| 20260507033957 | 48 | 24 | 10.4 | 17.4 | 0.00 | 0.00 | 0.00 | 68 | 1021.8 |
| 20260507033732 | 48 | 5 | 8.7 | 15.6 | 0.00 | 0.00 | 0.00 | 69 | 1021.8 |
| 20260507033457 | 48 | 37 | 9.6 | 15.6 | 0.00 | 0.00 | 0.00 | 68 | 1021.9 |
| 20260507032457 | 48 | 1 | 9.6 | 15.6 | 0.00 | 0.00 | 0.00 | 69 | 1022.0 |
| 20260507031956 | 48 | 13 | 9.6 | 15.6 | 0.00 | 0.00 | 0.00 | 69 | 1021.6 |
| 20260507031454 | 49 | 5 | 10.4 | 18.2 | 0.00 | 0.00 | 0.00 | 68 | 1021.6 |
| 20260507030954 | 49 | 19 | 10.4 | 20.0 | 0.00 | 0.00 | 0.00 | 67 | 1021.5 |
| 20260507030454 | 50 | 355 | 9.6 | 20.0 | 0.00 | 0.00 | 0.00 | 66 | 1021.5 |
| 20260507025955 | 51 | 24 | 7.8 | 13.0 | 0.00 | 0.00 | 0.00 | 68 | 1021.4 |
| 20260507025451 | 51 | 23 | 7.8 | 13.0 | 0.00 | 0.00 | 0.00 | 69 | 1021.4 |
| 20260507025221 | 51 | 20 | 8.7 | 13.0 | 0.00 | 0.00 | 0.00 | 67 | 1021.4 |
| 20260507024720 | 51 | 6 | 11.3 | 17.4 | 0.00 | 0.00 | 0.00 | 66 | 1021.2 |
| 20260507023951 | 52 | 29 | 14.8 | 19.1 | 0.00 | 0.00 | 0.00 | 62 | 1020.8 |
| 20260507023450 | 53 | 24 | 14.8 | 21.7 | 0.00 | 0.00 | 0.00 | 57 | 1020.3 |
| 20260507022950 | 55 | 23 | 12.2 | 21.7 | 0.00 | 0.00 | 0.00 | 53 | 1020.2 |
| 20260507022445 | 56 | 15 | 10.4 | 17.4 | 0.00 | 0.00 | 0.00 | 50 | 1020.5 |
| 20260507022217 | 57 | 0 | 9.6 | 14.8 | 0.00 | 0.00 | 0.00 | 49 | 1020.2 |
| 20260507021447 | 57 | 20 | 9.6 | 13.0 | 0.00 | 0.00 | 0.00 | 49 | 1020.0 |
| 20260507020944 | 57 | 11 | 9.6 | 15.6 | 0.00 | 0.00 | 0.00 | 49 | 1019.8 |
| 20260507020444 | 57 | 1 | 9.6 | 15.6 | 0.00 | 0.00 | 0.00 | 48 | 1019.6 |
| 20260507015942 | 57 | 8 | 8.7 | 14.8 | 0.00 | 0.00 | 0.00 | 48 | 1019.1 |
| 20260507015442 | 57 | 53 | 9.6 | 14.8 | 0.00 | 0.00 | 0.00 | 48 | 1018.9 |
| 20260507014943 | 57 | 25 | 8.7 | 13.9 | 0.00 | 0.00 | 0.00 | 48 | 1018.6 |
| 20260507014441 | 57 | 36 | 8.7 | 13.9 | 0.00 | 0.00 | 0.00 | 48 | 1018.5 |
| 20260507013939 | 57 | 63 | 9.6 | 13.9 | 0.00 | 0.00 | 0.00 | 48 | 1018.3 |
| 20260507013441 | 57 | 49 | 10.4 | 17.4 | 0.00 | 0.00 | 0.00 | 48 | 1018.1 |
| 20260507012940 | 58 | 44 | 11.3 | 17.4 | 0.00 | 0.00 | 0.00 | 48 | 1017.8 |
| 20260507012440 | 58 | 35 | 11.3 | 18.2 | 0.00 | 0.00 | 0.00 | 47 | 1017.5 |
| 20260507011938 | 58 | 40 | 10.4 | 18.2 | 0.00 | 0.00 | 0.00 | 46 | 1017.3 |
| 20260507011709 | 58 | 75 | 9.6 | 18.2 | 0.00 | 0.00 | 0.00 | 47 | 1017.1 |
| 20260507010936 | 59 | 53 | 9.6 | 15.6 | 0.00 | 0.00 | 0.00 | 46 | 1016.7 |
| 20260507010435 | 59 | 36 | 10.4 | 16.5 | 0.00 | 0.00 | 0.00 | 46 | 1016.3 |
| 20260507005936 | 59 | 46 | 10.4 | 16.5 | 0.00 | 0.00 | 0.00 | 46 | 1016.3 |
| 20260507005433 | 59 | 108 | 9.6 | 15.6 | 0.00 | 0.00 | 0.00 | 46 | 1016.0 |
| 20260507004933 | 60 | 70 | 10.4 | 18.2 | 0.00 | 0.00 | 0.00 | 45 | 1016.1 |
| 20260507004434 | 60 | 46 | 10.4 | 18.2 | 0.00 | 0.00 | 0.00 | 45 | 1016.1 |
| 20260507003933 | 60 | 101 | 9.6 | 15.6 | 0.00 | 0.00 | 0.00 | 44 | 1015.9 |
| 20260507003439 | 60 | 57 | 9.6 | 18.2 | 0.00 | 0.00 | 0.00 | 44 | 1015.8 |
| 20260507003434 | 60 | 96 | 9.6 | 18.2 | 0.00 | 0.00 | 0.00 | 44 | 1015.8 |
| 20260507002432 | 60 | 80 | 10.4 | 17.4 | 0.00 | 0.00 | 0.00 | 44 | 1015.8 |
| 20260507001931 | 61 | 41 | 11.3 | 18.2 | 0.00 | 0.00 | 0.00 | 44 | 1015.7 |
| 20260507001429 | 61 | 57 | 12.2 | 20.0 | 0.00 | 0.00 | 0.00 | 43 | 1015.7 |
| 20260507000930 | 62 | 22 | 13.0 | 20.0 | 0.00 | 0.00 | 0.00 | 42 | 1015.5 |
| 20260507000429 | 62 | 102 | 13.0 | 20.0 | 0.00 | 0.00 | 0.00 | 42 | 1015.5 |
| 20260506235928 | 63 | 97 | 13.0 | 20.0 | 0.00 | 0.00 | 0.00 | 41 | 1015.0 |
| 20260506235427 | 63 | 75 | 12.2 | 19.1 | 0.00 | 0.00 | 0.00 | 41 | 1015.1 |
| 20260506234925 | 63 | 128 | 12.2 | 19.1 | 0.00 | 0.00 | 0.00 | 41 | 1015.0 |
| 20260506234426 | 62 | 40 | 12.2 | 19.1 | 0.00 | 0.00 | 0.00 | 41 | 1014.8 |
| 20260506233925 | 63 | 91 | 13.9 | 23.5 | 0.00 | 0.00 | 0.00 | 41 | 1014.9 |
| 20260506233425 | 64 | 91 | 16.5 | 23.5 | 0.00 | 0.00 | 0.00 | 39 | 1014.7 |
| 20260506232924 | 65 | 72 | 15.6 | 22.6 | 0.00 | 0.00 | 0.00 | 38 | 1015.0 |
| 20260506232423 | 64 | 84 | 14.8 | 20.9 | 0.00 | 0.00 | 0.00 | 39 | 1015.0 |
| 20260506231924 | 64 | 97 | 14.8 | 22.6 | 0.00 | 0.00 | 0.00 | 40 | 1015.0 |
| 20260506231424 | 64 | 94 | 13.0 | 22.6 | 0.00 | 0.00 | 0.00 | 39 | 1014.9 |
| 20260506230927 | 64 | 74 | 13.0 | 22.6 | 0.00 | 0.00 | 0.00 | 39 | 1015.0 |
| 20260506230923 | 64 | 93 | 13.9 | 22.6 | 0.00 | 0.00 | 0.00 | 40 | 1014.8 |
| 20260506230152 | 64 | 76 | 11.3 | 21.7 | 0.00 | 0.00 | 0.00 | 38 | 1014.9 |
| 20260506225421 | 64 | 79 | 12.2 | 20.9 | 0.00 | 0.00 | 0.00 | 38 | 1014.8 |
| 20260506224919 | 65 | 68 | 12.2 | 20.9 | 0.00 | 0.00 | 0.00 | 38 | 1014.6 |
| 20260506224420 | 65 | 44 | 12.2 | 20.0 | 0.00 | 0.00 | 0.00 | 38 | 1014.6 |
| 20260506223918 | 65 | 131 | 12.2 | 20.0 | 0.00 | 0.00 | 0.00 | 38 | 1014.7 |
| 20260506223415 | 65 | 76 | 11.3 | 17.4 | 0.00 | 0.00 | 0.00 | 38 | 1014.6 |
| 20260506222915 | 64 | 86 | 9.6 | 15.6 | 0.00 | 0.00 | 0.00 | 38 | 1014.6 |
| 20260506222415 | 64 | 52 | 11.3 | 18.2 | 0.00 | 0.00 | 0.00 | 38 | 1014.7 |
| 20260506221915 | 64 | 43 | 12.2 | 19.1 | 0.00 | 0.00 | 0.00 | 38 | 1014.7 |
| 20260506221646 | 65 | 95 | 10.4 | 19.1 | 0.00 | 0.00 | 0.00 | 37 | 1014.8 |
| 20260506220912 | 65 | 91 | 9.6 | 17.4 | 0.00 | 0.00 | 0.00 | 36 | 1014.7 |
| 20260506220409 | 66 | 359 | 10.4 | 17.4 | 0.00 | 0.00 | 0.00 | 36 | 1014.7 |
| 20260506215909 | 67 | 82 | 12.2 | 19.1 | 0.00 | 0.00 | 0.00 | 35 | 1014.8 |
| 20260506215409 | 67 | 68 | 10.4 | 19.1 | 0.00 | 0.00 | 0.00 | 35 | 1014.6 |
| 20260506214908 | 68 | 103 | 7.0 | 18.2 | 0.00 | 0.00 | 0.00 | 33 | 1014.7 |
| 20260506214638 | 69 | 32 | 4.3 | 10.4 | 0.00 | 0.00 | 0.00 | 33 | 1014.5 |
| 20260506213908 | 68 | 100 | 2.6 | 7.8 | 0.00 | 0.00 | 0.00 | 33 | 1014.7 |
| 20260506213406 | 68 | 102 | 4.3 | 11.3 | 0.00 | 0.00 | 0.00 | 34 | 1014.7 |
| 20260506212905 | 68 | 158 | 6.1 | 12.2 | 0.00 | 0.00 | 0.00 | 34 | 1014.9 |
| 20260506212403 | 68 | 123 | 5.2 | 12.2 | 0.00 | 0.00 | 0.00 | 34 | 1015.0 |
| 20260506211903 | 67 | 50 | 4.3 | 10.4 | 0.00 | 0.00 | 0.00 | 35 | 1015.0 |
| 20260506211403 | 67 | 36 | 4.3 | 10.4 | 0.00 | 0.00 | 0.00 | 36 | 1015.0 |
| 20260506210901 | 66 | 58 | 5.2 | 11.3 | 0.00 | 0.00 | 0.00 | 36 | 1015.1 |
| 20260506210401 | 65 | 98 | 5.2 | 11.3 | 0.00 | 0.00 | 0.00 | 37 | 1015.1 |
| 20260506205903 | 65 | 24 | 6.1 | 11.3 | 0.00 | 0.00 | 0.00 | 36 | 1015.1 |
| 20260506205359 | 65 | 37 | 6.1 | 13.0 | 0.00 | 0.00 | 0.00 | 36 | 1015.1 |
| 20260506204859 | 66 | 59 | 7.0 | 13.0 | 0.00 | 0.00 | 0.00 | 36 | 1015.2 |
| 20260506204629 | 65 | 32 | 8.7 | 13.9 | 0.00 | 0.00 | 0.00 | 36 | 1015.2 |
| 20260506203858 | 65 | 113 | 7.0 | 13.9 | 0.00 | 0.00 | 0.00 | 36 | 1015.3 |
| 20260506203629 | 65 | 146 | 6.1 | 13.9 | 0.00 | 0.00 | 0.00 | 38 | 1015.4 |
| 20260506202858 | 65 | 55 | 7.0 | 13.0 | 0.00 | 0.00 | 0.00 | 37 | 1015.4 |
| 20260506202626 | 64 | 24 | 6.1 | 12.2 | 0.00 | 0.00 | 0.00 | 38 | 1015.5 |
| 20260506201853 | 64 | 60 | 4.3 | 9.6 | 0.00 | 0.00 | 0.00 | 37 | 1015.7 |
| 20260506201353 | 64 | 134 | 5.2 | 11.3 | 0.00 | 0.00 | 0.00 | 38 | 1015.6 |
| 20260506200856 | 64 | 69 | 6.1 | 11.3 | 0.00 | 0.00 | 0.00 | 37 | 1015.6 |
| 20260506200623 | 65 | 102 | 7.0 | 12.2 | 0.00 | 0.00 | 0.00 | 36 | 1015.7 |
| 20260506195853 | 65 | 71 | 7.0 | 13.0 | 0.00 | 0.00 | 0.00 | 37 | 1015.7 |
| 20260506195351 | 65 | 103 | 6.1 | 14.8 | 0.00 | 0.00 | 0.00 | 37 | 1015.7 |
| 20260506194851 | 65 | 117 | 5.2 | 14.8 | 0.00 | 0.00 | 0.00 | 37 | 1015.7 |
| 20260506194730 | 65 | 122 | 7.0 | 13.9 | 0.00 | 0.00 | 0.00 | 37 | 1015.7 |
| 20260506194621 | 65 | 56 | 6.1 | 13.9 | 0.00 | 0.00 | 0.00 | 36 | 1015.6 |
| 20260506193351 | 65 | 70 | 5.2 | 12.2 | 0.00 | 0.00 | 0.00 | 37 | 1015.6 |
| 20260506192855 | 65 | 226 | 2.6 | 7.0 | 0.00 | 0.00 | 0.00 | 37 | 1015.9 |
| 20260506192851 | 65 | 38 | 3.5 | 9.6 | 0.00 | 0.00 | 0.00 | 37 | 1015.8 |
| 20260506191851 | 64 | 236 | 3.5 | 8.7 | 0.00 | 0.00 | 0.00 | 37 | 1016.0 |
| 20260506191349 | 64 | 143 | 3.5 | 10.4 | 0.00 | 0.00 | 0.00 | 37 | 1016.1 |
| 20260506190844 | 64 | 207 | 2.6 | 10.4 | 0.00 | 0.00 | 0.00 | 37 | 1016.2 |
| 20260506190345 | 64 | 238 | 2.6 | 7.8 | 0.00 | 0.00 | 0.00 | 38 | 1016.3 |
| 20260506185843 | 64 | 129 | 3.5 | 7.8 | 0.00 | 0.00 | 0.00 | 40 | 1016.4 |
| 20260506185343 | 63 | 281 | 3.5 | 8.7 | 0.00 | 0.00 | 0.00 | 39 | 1016.5 |
| 20260506184843 | 63 | 220 | 1.7 | 8.7 | 0.00 | 0.00 | 0.00 | 39 | 1016.6 |
| 20260506184343 | 63 | 98 | 1.7 | 5.2 | 0.00 | 0.00 | 0.00 | 40 | 1016.7 |
| 20260506183843 | 63 | 55 | 2.6 | 7.8 | 0.00 | 0.00 | 0.00 | 41 | 1016.8 |
| 20260506183344 | 62 | 109 | 4.3 | 11.3 | 0.00 | 0.00 | 0.00 | 41 | 1017.0 |
| 20260506182841 | 62 | 114 | 3.5 | 11.3 | 0.00 | 0.00 | 0.00 | 41 | 1016.8 |
| 20260506182339 | 62 | 103 | 2.6 | 8.7 | 0.00 | 0.00 | 0.00 | 42 | 1017.1 |
| 20260506181839 | 62 | 150 | 2.6 | 8.7 | 0.00 | 0.00 | 0.00 | 43 | 1017.2 |
| 20260506181336 | 61 | 56 | 2.6 | 8.7 | 0.00 | 0.00 | 0.00 | 44 | 1017.2 |
| 20260506180837 | 60 | 139 | 4.3 | 9.6 | 0.00 | 0.00 | 0.00 | 45 | 1017.1 |
| 20260506180337 | 60 | 96 | 3.5 | 9.6 | 0.00 | 0.00 | 0.00 | 46 | 1017.2 |
| 20260506175834 | 59 | 98 | 3.5 | 7.0 | 0.00 | 0.00 | 0.00 | 46 | 1017.4 |
| 20260506175335 | 59 | 49 | 5.2 | 11.3 | 0.00 | 0.00 | 0.00 | 47 | 1017.5 |
| 20260506174835 | 59 | 53 | 4.3 | 11.3 | 0.00 | 0.00 | 0.00 | 47 | 1017.5 |
| 20260506174604 | 59 | 110 | 2.6 | 9.6 | 0.00 | 0.00 | 0.00 | 48 | 1017.6 |
| 20260506173832 | 59 | 41 | 1.7 | 8.7 | 0.00 | 0.00 | 0.00 | 48 | 1017.7 |
| 20260506173333 | 58 | 140 | 2.6 | 7.8 | 0.00 | 0.00 | 0.00 | 49 | 1017.7 |
| 20260506172833 | 58 | 280 | 2.6 | 7.8 | 0.00 | 0.00 | 0.00 | 49 | 1017.9 |
| 20260506172325 | 57 | 151 | 4.3 | 10.4 | 0.00 | 0.00 | 0.00 | 50 | 1017.8 |
| 20260506172054 | 57 | 60 | 4.3 | 10.4 | 0.00 | 0.00 | 0.00 | 49 | 1017.8 |
| 20260506171315 | 57 | 106 | 2.6 | 10.4 | 0.00 | 0.00 | 0.00 | 50 | 1017.9 |
| 20260506170811 | 57 | 32 | 2.6 | 8.7 | 0.00 | 0.00 | 0.00 | 51 | 1017.8 |
| 20260506170308 | 57 | 65 | 3.5 | 8.7 | 0.00 | 0.00 | 0.00 | 50 | 1017.9 |
| 20260506165809 | 57 | 85 | 1.7 | 8.7 | 0.00 | 0.00 | 0.00 | 51 | 1017.9 |
| 20260506165309 | 56 | 122 | 0.9 | 5.2 | 0.00 | 0.00 | 0.00 | 53 | 1017.9 |
| 20260506164808 | 56 | 79 | 2.6 | 7.8 | 0.00 | 0.00 | 0.00 | 53 | 1017.9 |
| 20260506164307 | 55 | 98 | 3.5 | 8.7 | 0.00 | 0.00 | 0.00 | 54 | 1017.9 |
| 20260506163807 | 55 | 141 | 3.5 | 10.4 | 0.00 | 0.00 | 0.00 | 55 | 1017.8 |
| 20260506163305 | 55 | 142 | 2.6 | 10.4 | 0.00 | 0.00 | 0.00 | 56 | 1017.8 |
| 20260506162804 | 54 | 44 | 1.7 | 6.1 | 0.00 | 0.00 | 0.00 | 59 | 1017.9 |
| 20260506162306 | 54 | 159 | 2.6 | 6.1 | 0.00 | 0.00 | 0.00 | 59 | 1017.9 |
| 20260506161802 | 53 | 178 | 1.7 | 5.2 | 0.00 | 0.00 | 0.00 | 60 | 1017.9 |
| 20260506161303 | 53 | 101 | 1.7 | 6.1 | 0.00 | 0.00 | 0.00 | 61 | 1017.9 |
| 20260506160801 | 52 | 215 | 1.7 | 7.0 | 0.00 | 0.00 | 0.00 | 62 | 1017.9 |
| 20260506160301 | 52 | 117 | 3.5 | 7.8 | 0.00 | 0.00 | 0.00 | 62 | 1017.8 |
| 20260506155801 | 52 | 113 | 2.6 | 7.8 | 0.00 | 0.00 | 0.00 | 63 | 1017.8 |
| 20260506155534 | 51 | 111 | 2.6 | 8.7 | 0.00 | 0.00 | 0.00 | 64 | 1017.7 |
| 20260506155259 | 51 | 146 | 2.6 | 8.7 | 0.00 | 0.00 | 0.00 | 64 | 1017.7 |
| 20260506154259 | 51 | 143 | 2.6 | 7.0 | 0.00 | 0.00 | 0.00 | 65 | 1017.6 |
| 20260506153756 | 51 | 116 | 3.5 | 7.0 | 0.00 | 0.00 | 0.00 | 65 | 1017.7 |
| 20260506153257 | 51 | 101 | 2.6 | 6.1 | 0.00 | 0.00 | 0.00 | 66 | 1017.6 |
| 20260506152757 | 49 | 156 | 1.7 | 6.1 | 0.00 | 0.00 | 0.00 | 69 | 1017.5 |
| 20260506152254 | 49 | 158 | 1.7 | 6.1 | 0.00 | 0.00 | 0.00 | 70 | 1017.4 |
| 20260506151755 | 48 | 129 | 2.6 | 6.1 | 0.00 | 0.00 | 0.00 | 71 | 1017.4 |
| 20260506151255 | 48 | 162 | 2.6 | 7.0 | 0.00 | 0.00 | 0.00 | 71 | 1017.4 |
| 20260506150755 | 48 | 147 | 2.6 | 7.0 | 0.00 | 0.00 | 0.00 | 72 | 1017.4 |
| 20260506150304 | 47 | 113 | 2.6 | 4.3 | 0.00 | 0.00 | 0.00 | 73 | 1017.4 |